This is the latest recevied weather packets stored in our database for station/object AA4XD. If no packets are shown the sender has not sent any weather packets the latest 10 day(s).
| Time | Temp. | Humidity | Pressure | Rain* | Wind** | Luminosity | Snow |
|---|---|---|---|---|---|---|---|
| 1777909586 | 26.67° C | 37% | 1017 hPa | 0 mm | - | 909 W/m² | - |
| 1777909283 | 26.11° C | 37% | 1017.3 hPa | 0 mm | - | 897 W/m² | - |
| 1777908981 | 26.11° C | 37% | 1017 hPa | 0 mm | - | 890 W/m² | - |
| 1777908680 | 26.11° C | 37% | 1017.1 hPa | 0 mm | - | 876 W/m² | - |
| 1777908376 | 25.56° C | 38% | 1017.1 hPa | 0 mm | - | 861 W/m² | - |
| 1777908072 | 26.11° C | 37% | 1017.2 hPa | 0 mm | - | 852 W/m² | - |
| 1777907769 | 26.11° C | 37% | 1017.4 hPa | 0 mm | - | 831 W/m² | - |
| 1777907469 | 25.56° C | 39% | 1017.2 hPa | 0 mm | - | 819 W/m² | - |
| 1777907166 | 25.56° C | 39% | 1017.3 hPa | 0 mm | - | 805 W/m² | - |
| 1777906863 | 26.11° C | 38% | 1017.2 hPa | 0 mm | - | 786 W/m² | - |
| 1777906561 | 25.56° C | 40% | 1017 hPa | 0 mm | - | 767 W/m² | - |
| 1777906255 | 25.56° C | 42% | 1017.1 hPa | 0 mm | - | 741 W/m² | - |
| 1777905952 | 25.56° C | 41% | 1017.2 hPa | 0 mm | - | 720 W/m² | - |
| 1777905649 | 25.56° C | 40% | 1017.1 hPa | 0 mm | - | 693 W/m² | - |
| 1777905346 | 26.11° C | 44% | 1017.2 hPa | 0 mm | - | 674 W/m² | - |
| 1777905044 | 25.56° C | 42% | 1017.4 hPa | 0 mm | - | 660 W/m² | - |
| 1777904741 | 25.56° C | 41% | 1017.2 hPa | 0 mm | - | 654 W/m² | - |
| 1777904438 | 25.56° C | 44% | 1017.3 hPa | 0 mm | - | 646 W/m² | - |
| 1777904135 | 25° C | 43% | 1017.1 hPa | 0 mm | - | 631 W/m² | - |
| 1777903832 | 24.44° C | 46% | 1017.1 hPa | 0 mm | - | 613 W/m² | - |
| 1777903528 | 25° C | 46% | 1017.2 hPa | 0 mm | - | 591 W/m² | - |
| 1777903225 | 25° C | 47% | 1017.4 hPa | 0 mm | - | 565 W/m² | - |
| 1777902921 | 25° C | 48% | 1017 hPa | 0 mm | - | 539 W/m² | - |
| 1777902618 | 24.44° C | 50% | 1017.1 hPa | 0 mm | - | 515 W/m² | - |
| 1777902315 | 23.89° C | 54% | 1017.3 hPa | 0 mm | - | 496 W/m² | - |
* Rain latest hour (hover to see other rain measurements)
** Current wind speed in m/s (hover to see current wind gust speed)